CENTISPACE-1 S7 (62576 NORAD) Tracking and Keplerian Element Data

This shows tracking and keplerian element data for the satellite.

Feedback or suggestion? Click here.




ElementValue
Catalog62576
NameCENTISPACE-1 S7
Epoch Orbit325
Epoch Day35.17383861
Epoch Year2025
RAAN38.0643
Inclination54.9801
Eccentricity0.0018007
Argument of Perigee352.0644
Mean Anonmoly8.0068
Mean Motion14.76260418
Decay Rate3.332E-05
L11 62576U 25007B 25035.17383861 .00003332 00000+0 50637-3 0 9996
L22 62576 54.9801 38.0643 0018007 352.0644 8.0068 14.76260418 3250



Live tracking and technical data element details for CENTISPACE-1 S7 (NORAD 62576). CENTISPACE-1 S7 can be tracked NOW for your location showing map with azimuth and elevation plus other details from your city location.







IsCatalogInMostPopularTable: catalog: 62576, numindb: 15
Update: records affected: 1



GetName: 62576 CENTISPACE-1 S7

Hit Count: updated at: Sun, 18 May 2025 22:30:29 GMT